This demonstration page uses our WeatherBlox Daily Observations layout. Learn more.

Left ArrowRight Arrow

30.21309, -93.2044

Hourly Observations for January 24, 2022

Temp ( °F °C ) Dew Point ( °F °C ) Humidity (%) Winds ( mph kmh ) Pressure ( in mb ) Visibility ( mi km ) Precip ( " mm )
12:15 am 00:15 Clear 37 2.9 34 1.2 89 89 WSW 5 7 30.11 1020 10 16 0.00 0.00
12:35 am 00:35 Clear 43 6.3 38 3.1 80 80 SW 6 9 30.10 1019 10 16 0.00 0.00
12:55 am 00:55 Clear 42 5.8 38 3.1 83 83 WSW 6 9 30.10 1019 10 16 0.00 0.00
1:15 am 01:15 Clear 43 6 37 3 81 81 SW 5 7 30.10 1019 10 16 0.00 0.00
1:35 am 01:35 Clear 41 5.2 36 2 80 80 SW 3 6 30.09 1019 10 16 0.00 0.00
1:55 am 01:55 Clear 39 3.9 37 2.5 91 91 Calm 30.08 1019 10 16 0.00 0.00
2:15 am 02:15 Clear 38 3.5 36 2.3 92 92 Calm 30.08 1019 10 16 0.00 0.00
2:35 am 02:35 Clear 37 2.8 35 1.6 92 92 Calm 30.07 1018 10 16 0.00 0.00
2:55 am 02:55 Clear 37 2.9 35 1.9 93 93 Calm 30.06 1018 7 11 0.00 0.00
3:15 am 03:15 Clear with Mist and Fog 37 3 36 2.1 94 94 SSE 3 6 30.05 1018 5 8 0.00 0.00
3:35 am 03:35 Clear with Mist and Fog 36 2.4 35 1.6 95 95 S 3 6 30.04 1017 4 6 0.00 0.00
3:55 am 03:55 Clear 36 2.1 34 1.2 94 94 Calm 30.04 1017 10 16 0.00 0.00
4:15 am 04:15 Partly Cloudy 36 2.4 35 1.6 95 95 Calm 30.04 1017 7 11 0.00 0.00
4:35 am 04:35 Mostly Cloudy 37 3 36 2 93 93 Calm 30.04 1017 10 16 0.00 0.00
4:55 am 04:55 Cloudy 40 4.7 38 3.4 91 91 Calm 30.04 1017 10 16 0.00 0.00
5:15 am 05:15 Cloudy 42 5.4 39 4 91 91 Calm 30.04 1017 10 16 0.00 0.00
5:35 am 05:35 Cloudy 42 5.8 40 4.7 93 93 SW 3 6 30.05 1018 7 11 0.00 0.00
6:00 am 06:00 Mostly Clear 43 6 41 5 93 93 Calm 30.04 1017 10 16 0.00 0.00
6:45 am 06:45 Cloudy 43 6 41 5 93 93 Calm 30.05 1018 10 16 0.00 0.00
7:47 am 07:47 Mostly Cloudy 45 7 41 5 87 87 Calm 30.03 1017 10 16 0.00 0.00
8:55 am 08:55 Mostly Cloudy 48 9 45 7 87 87 Calm 30.05 1018 10 16 0.00 0.00
9:50 am 09:50 Mostly Cloudy 50 10 45 7 82 82 SE 8 13 30.03 1017 10 16 0.00 0.00
10:50 am 10:50 Mostly Cloudy 52 11 45 7 77 77 Calm 30.02 1017 10 16 0.00 0.00
11:55 am 11:55 Mostly Cloudy with Light Rain 52 11 45 7 77 77 SSW 8 13 30.04 1017 6 10 0.00 0.00
12:45 pm 12:45 Cloudy with Light Rain 50 10 45 7 82 82 SSE 6 9 30.05 1018 5 8 0.00 0.00
1:53 pm 13:53 Cloudy with Light Rain 48 9 45 7 87 87 SSE 5 7 29.97 1015 5 8 0.00 0.00
2:49 pm 14:49 Cloudy with Light Rain 48 9 45 7 87 87 SE 14 22 29.93 1014 5 8 0.00 0.00
3:45 pm 15:45 Cloudy with Light Rain 46 8 45 7 93 93 SE 13 20 29.93 1014 5 8 0.00 0.00
4:55 pm 16:55 Cloudy with Light Rain 46 8 43 6 87 87 E 14 22 29.90 1013 5 8 0.00 0.00
5:53 pm 17:53 Cloudy with Light Rain 45 7 43 6 93 93 E 10 17 29.90 1013 5 8 0.00 0.00
6:52 pm 18:52 Cloudy with Light Rain 45 7 43 6 93 93 ENE 8 13 29.92 1013 4 6 0.00 0.00
7:54 pm 19:54 Cloudy with Light Rain 45 7 43 6 93 93 ENE 12 19 29.91 1013 3 5 0.00 0.00
8:55 pm 20:55 Cloudy with Light Rain 45 7 43 6 93 93 NE 7 11 29.91 1013 4 6 0.00 0.00
9:45 pm 21:45 Cloudy with Light Rain 45 7 45 7 100 100 E 8 13 29.91 1013 2 3 0.00 0.00
10:15 pm 22:15 Cloudy with Light Rain 45 7.4 44 6.5 94 94 NE 9 15 29.90 1013 7 11 0.00 0.00
10:35 pm 22:35 Cloudy 46 7.5 44 6.6 94 94 ENE 9 15 29.89 1012 7 11 0.00 0.00
10:55 pm 22:55 Cloudy 46 7.7 44 6.7 93 93 NE 7 11 29.89 1012 10 16 0.00 0.00
11:15 pm 23:15 Cloudy 46 7.7 44 6.8 94 94 NE 8 13 29.89 1012 10 16 0.00 0.00
11:35 pm 23:35 Cloudy with Mist and Fog 46 7.8 44 6.8 93 93 NE 8 13 29.88 1012 7 11 0.00 0.00
11:55 pm 23:55 Cloudy with Light Rain 46 7.8 44 6.9 94 94 ENE 10 17 29.87 1012 4 6 0.01 0.25

Powered by AerisWeather